This demonstration page uses our WeatherBlox Daily Observations layout. Learn more.

Left ArrowRight Arrow

39.95238, -75.16362

Hourly Observations for January 11, 2022

Temp ( °F °C ) Dew Point ( °F °C ) Humidity (%) Winds ( mph kmh ) Pressure ( in mb ) Visibility ( mi km ) Precip ( " mm )
12:54 am 00:54 Mostly Clear 27 -2.8 7 -13.9 43 43 W 13 20 30.28 1025 10 16 0.00 0.00
1:54 am 01:54 Partly Cloudy 26 -3.3 5 -15 40 40 NW 16 26 30.31 1027 10 16 0.00 0.00
2:54 am 02:54 Mostly Cloudy 24 -4.4 5 -15 44 44 NNW 18 30 30.36 1028 10 16 0.00 0.00
3:54 am 03:54 Mostly Clear 22 -5.6 -1 -18.3 36 36 NNW 18 30 30.39 1029 10 16 0.00 0.00
4:54 am 04:54 Clear 21 -6.1 0 -17.8 39 39 NNW 16 26 30.42 1030 10 16 0.00 0.00
5:54 am 05:54 Mostly Clear 20 -6.7 2 -16.7 45 45 NNW 10 17 30.46 1032 10 16 0.00 0.00
6:54 am 06:54 Mostly Clear 20 -6.7 2 -16.7 45 45 NW 14 22 30.50 1033 10 16 0.00 0.00
7:54 am 07:54 Mostly Sunny 20 -6.7 2 -16.7 45 45 NNW 10 17 30.52 1034 10 16 0.00 0.00
8:54 am 08:54 Mostly Sunny 21 -6.1 0 -17.8 39 39 NNW 16 26 30.55 1035 10 16 0.00 0.00
9:54 am 09:54 Mostly Sunny 22 -5.6 -2 -18.9 35 35 NNW 21 33 30.57 1035 10 16 0.00 0.00
10:54 am 10:54 Mostly Sunny 23 -5 -3 -19.4 32 32 WNW 21 33 30.56 1035 10 16 0.00 0.00
11:54 am 11:54 Mostly Sunny 24 -4.4 -3 -19.4 30 30 NW 13 20 30.54 1034 10 16 0.00 0.00
12:54 pm 12:54 Mostly Sunny 24 -4.4 -3 -19.4 30 30 NW 9 15 30.53 1034 10 16 0.00 0.00
1:36 pm 13:36 Mostly Sunny 25 -3.9 -2 -18.9 30 30 NNW 15 24 30.53 1034 10 16 0.00 0.00
1:54 pm 13:54 Mostly Sunny 25 -3.9 -2 -18.9 30 30 WNW 14 22 30.53 1034 10 16 0.00 0.00
2:54 pm 14:54 Mostly Sunny 27 -2.8 -2 -18.9 28 28 NW 13 20 30.53 1034 10 16 0.00 0.00
3:54 pm 15:54 Mostly Sunny 27 -2.8 -1 -18.3 29 29 NW 12 19 30.54 1034 10 16 0.00 0.00
4:54 pm 16:54 Mostly Sunny 25 -3.9 -1 -18.3 32 32 NW 9 15 30.56 1035 10 16 0.00 0.00
5:54 pm 17:54 Mostly Clear 24 -4.4 0 -17.8 35 35 NW 8 13 30.56 1035 10 16 0.00 0.00
6:54 pm 18:54 Clear 23 -5 1 -17.2 38 38 N 6 9 30.55 1035 10 16 0.00 0.00
7:54 pm 19:54 Clear 23 -5 1 -17.2 38 38 NNW 3 6 30.55 1035 10 16 0.00 0.00
8:54 pm 20:54 Clear 22 -5.6 2 -16.7 42 42 Calm 30.53 1034 10 16 0.00 0.00
9:54 pm 21:54 Clear 23 -5 6 -14.4 48 48 S 6 9 30.52 1034 10 16 0.00 0.00
10:54 pm 22:54 Clear 22 -5.6 6 -14.4 50 50 SSE 7 11 30.50 1033 10 16 0.00 0.00
11:54 pm 23:54 Clear 22 -5.6 7 -13.9 52 52 VRB 7 11 30.48 1032 10 16 0.00 0.00

Powered by AerisWeather